RYR6SJ LIRF-LEPA

Flight info

Callsign RYR6SJ
Flight time 1h 23m
Altitude 33000
Route ESINO DCT ABIDU DCT OKIDO DCT KOLUS DCT GOKMI DCT SUPUX DCT KUPIM DCT SUXER DCT RIPAL DCT MORSS
Aircraft A320/M-SDE3FGHIRWY/LB1

Departure

Time 2026-05-04 15:41
Airport Rome–Fiumicino Leonardo da Vinci International Airport (LIRF)

Arrival

Time 2026-05-04 17:05
Airport Palma de Mallorca Airport (LEPA)
Time Latitude Longitude Altitude Speed Heading
2026-05-04 15:14 41.79741 12.25863 14 ft 0 kts 115°
2026-05-04 15:15 41.79741 12.25862 14 ft 0 kts 115°
2026-05-04 15:31 41.79746 12.25848 14 ft 2 kts 115°
2026-05-04 15:31 41.79754 12.25827 15 ft 2 kts 115°
2026-05-04 15:32 41.79743 12.25766 17 ft 3 kts 16°
2026-05-04 15:32 41.79736 12.25764 14 ft 0 kts
2026-05-04 15:35 41.79752 12.25767 17 ft 7 kts
2026-05-04 15:35 41.79838 12.25802 14 ft 19 kts 24°
2026-05-04 15:36 41.80095 12.25958 14 ft 19 kts 25°
2026-05-04 15:36 41.80206 12.26027 14 ft 17 kts 25°
2026-05-04 15:36 41.80305 12.26090 16 ft 15 kts 25°
2026-05-04 15:37 41.80392 12.26144 15 ft 12 kts 25°
2026-05-04 15:37 41.80470 12.26177 16 ft 14 kts 359°
2026-05-04 15:37 41.80536 12.26260 16 ft 13 kts 69°
2026-05-04 15:37 41.80566 12.26370 16 ft 12 kts 70°
2026-05-04 15:38 41.80592 12.26466 17 ft 10 kts 70°
2026-05-04 15:38 41.80615 12.26553 15 ft 9 kts 69°
2026-05-04 15:38 41.80648 12.26669 15 ft 19 kts 70°
2026-05-04 15:38 41.80694 12.26843 16 ft 14 kts 69°
2026-05-04 15:39 41.80727 12.26961 13 ft 13 kts 69°
2026-05-04 15:39 41.80773 12.27049 13 ft 11 kts 30°
2026-05-04 15:39 41.80873 12.27002 13 ft 7 kts 341°
2026-05-04 15:40 41.80915 12.26983 13 ft 9 kts 341°
2026-05-04 15:40 41.80954 12.26917 13 ft 10 kts 267°
2026-05-04 15:40 41.80933 12.26836 15 ft 13 kts 249°
2026-05-04 15:40 41.80836 12.26488 17 ft 74 kts 249°
2026-05-04 15:41 41.80585 12.25574 18 ft 133 kts 250°
2026-05-04 15:41 41.80211 12.24224 133 ft 166 kts 246°
2026-05-04 15:41 41.79839 12.22793 899 ft 161 kts 247°
2026-05-04 15:41 41.79455 12.21368 1438 ft 171 kts 249°
2026-05-04 15:42 41.79312 12.19688 1805 ft 192 kts 265°
2026-05-04 15:42 41.79293 12.17856 2352 ft 199 kts 266°
2026-05-04 15:42 41.79288 12.15988 2979 ft 203 kts 266°
2026-05-04 15:42 41.78966 12.14134 3420 ft 212 kts 238°
2026-05-04 15:43 41.77917 12.12660 3724 ft 231 kts 211°
2026-05-04 15:43 41.76511 12.11475 4158 ft 251 kts 210°
2026-05-04 15:43 41.75013 12.10216 4935 ft 257 kts 210°
2026-05-04 15:43 41.73483 12.08926 5742 ft 262 kts 211°
2026-05-04 15:44 41.71933 12.07617 6595 ft 265 kts 211°
2026-05-04 15:44 41.70363 12.06292 7387 ft 268 kts 211°
2026-05-04 15:44 41.68776 12.04954 8188 ft 271 kts 212°
2026-05-04 15:44 41.67172 12.03598 8996 ft 274 kts 212°
2026-05-04 15:45 41.65550 12.02223 9792 ft 278 kts 212°
2026-05-04 15:45 41.63904 12.00828 10486 ft 284 kts 213°
2026-05-04 15:45 41.62166 11.99357 10720 ft 307 kts 213°
2026-05-04 15:45 41.60305 11.97787 11088 ft 323 kts 213°
2026-05-04 15:46 41.58383 11.96171 11707 ft 329 kts 213°
2026-05-04 15:46 41.56434 11.94534 12396 ft 333 kts 214°
2026-05-04 15:46 41.54464 11.92879 13101 ft 336 kts 214°
2026-05-04 15:46 41.52467 11.91204 13809 ft 340 kts 214°
2026-05-04 15:47 41.50459 11.89518 14448 ft 343 kts 214°
2026-05-04 15:47 41.48432 11.87819 15069 ft 345 kts 214°
2026-05-04 15:47 41.46390 11.86111 15546 ft 348 kts 214°
2026-05-04 15:47 41.44339 11.84398 15905 ft 349 kts 214°
2026-05-04 15:48 41.42280 11.82676 16157 ft 350 kts 214°
2026-05-04 15:48 41.40313 11.80784 16355 ft 348 kts 224°
2026-05-04 15:48 41.37477 11.75658 16597 ft 345 kts 247°
2026-05-04 15:49 41.36631 11.72673 16727 ft 345 kts 251°
2026-05-04 15:49 41.35815 11.69646 17122 ft 348 kts 251°
2026-05-04 15:49 41.34991 11.66606 17759 ft 350 kts 251°
2026-05-04 15:49 41.34156 11.63546 18365 ft 353 kts 250°
2026-05-04 15:50 41.33322 11.60501 18873 ft 356 kts 250°
2026-05-04 15:50 41.32469 11.57386 19366 ft 360 kts 251°
2026-05-04 15:50 41.31609 11.54240 19862 ft 363 kts 251°
2026-05-04 15:50 41.30745 11.51071 20360 ft 366 kts 251°
2026-05-04 15:51 41.29870 11.47871 20850 ft 370 kts 251°
2026-05-04 15:51 41.28990 11.44643 21345 ft 373 kts 251°
2026-05-04 15:51 41.28100 11.41386 21836 ft 377 kts 251°
2026-05-04 15:51 41.27198 11.38102 22333 ft 380 kts 251°
2026-05-04 15:52 41.26286 11.34791 22810 ft 383 kts 251°
2026-05-04 15:52 41.25364 11.31447 23288 ft 387 kts 251°
2026-05-04 15:52 41.24434 11.28080 23743 ft 390 kts 251°
2026-05-04 15:52 41.23495 11.24690 24140 ft 392 kts 251°
2026-05-04 15:53 41.22553 11.21293 24578 ft 392 kts 251°
2026-05-04 15:53 41.21609 11.17887 25024 ft 393 kts 251°
2026-05-04 15:53 41.20664 11.14484 25452 ft 393 kts 251°
2026-05-04 15:53 41.19717 11.11077 25885 ft 393 kts 251°
2026-05-04 15:54 41.18772 11.07675 26304 ft 393 kts 251°
2026-05-04 15:54 41.17825 11.04267 26724 ft 393 kts 251°
2026-05-04 15:54 41.16878 11.00862 27136 ft 393 kts 251°
2026-05-04 15:54 41.15944 10.97499 27538 ft 393 kts 252°
2026-05-04 15:55 41.14996 10.94094 27942 ft 393 kts 252°
2026-05-04 15:55 41.14045 10.90690 28339 ft 394 kts 252°
2026-05-04 15:55 41.13090 10.87286 28725 ft 394 kts 252°
2026-05-04 15:55 41.12133 10.83877 29112 ft 394 kts 252°
2026-05-04 15:56 41.11174 10.80473 29478 ft 394 kts 252°
2026-05-04 15:56 41.10214 10.77071 29810 ft 394 kts 252°
2026-05-04 15:56 41.09251 10.73666 30150 ft 395 kts 252°
2026-05-04 15:56 41.08285 10.70248 30416 ft 396 kts 252°
2026-05-04 15:57 41.07318 10.66825 30661 ft 397 kts 252°
2026-05-04 15:57 41.06352 10.63397 30891 ft 398 kts 252°
2026-05-04 15:57 41.05384 10.59967 31149 ft 398 kts 252°
2026-05-04 15:57 41.04412 10.56543 31474 ft 396 kts 252°
2026-05-04 15:58 41.03442 10.53131 31803 ft 395 kts 252°
2026-05-04 15:58 41.02475 10.49737 32128 ft 393 kts 251°
2026-05-04 15:58 41.01512 10.46351 32448 ft 392 kts 251°
2026-05-04 15:58 41.00564 10.43027 32764 ft 391 kts 251°
2026-05-04 15:59 40.99603 10.39663 33078 ft 390 kts 251°
2026-05-04 15:59 40.98644 10.36314 33393 ft 388 kts 251°
2026-05-04 15:59 40.97688 10.32978 33710 ft 387 kts 251°
2026-05-04 15:59 40.96734 10.29652 34041 ft 386 kts 251°
2026-05-04 16:00 40.95784 10.26341 34321 ft 385 kts 251°
2026-05-04 16:00 40.94832 10.23032 34581 ft 384 kts 251°
2026-05-04 16:00 40.93884 10.19736 34825 ft 383 kts 251°
2026-05-04 16:00 40.92938 10.16446 35013 ft 383 kts 251°
2026-05-04 16:01 40.91059 10.09933 35065 ft 376 kts 251°
2026-05-04 16:01 40.89189 10.03480 35063 ft 375 kts 251°
2026-05-04 16:02 40.87315 9.97030 35065 ft 376 kts 251°
2026-05-04 16:03 40.84499 9.87335 35048 ft 377 kts 251°
2026-05-04 16:03 40.82608 9.80871 35042 ft 377 kts 251°
2026-05-04 16:04 40.80719 9.74404 35035 ft 378 kts 251°
2026-05-04 16:04 40.77876 9.64709 35025 ft 378 kts 251°
2026-05-04 16:05 40.75974 9.58243 35023 ft 379 kts 251°
2026-05-04 16:06 40.73109 9.48535 35023 ft 378 kts 250°
2026-05-04 16:07 40.69940 9.36541 35027 ft 378 kts 255°
2026-05-04 16:08 40.67049 9.23217 35034 ft 378 kts 255°
2026-05-04 16:09 40.63224 9.06623 35029 ft 379 kts 254°
2026-05-04 16:10 40.60141 8.93339 35030 ft 379 kts 254°
2026-05-04 16:11 40.57059 8.80104 35030 ft 380 kts 254°
2026-05-04 16:12 40.52385 8.60173 35030 ft 380 kts 254°
2026-05-04 16:13 40.49245 8.46887 35022 ft 381 kts 253°
2026-05-04 16:14 40.46085 8.33610 35022 ft 381 kts 253°
2026-05-04 16:16 40.43399 8.16741 35023 ft 381 kts 265°
2026-05-04 16:17 40.42376 7.99397 35017 ft 381 kts 260°
2026-05-04 16:18 40.40658 7.85660 35010 ft 382 kts 260°
2026-05-04 16:19 40.38474 7.68510 35010 ft 383 kts 259°
2026-05-04 16:20 40.36251 7.51279 35011 ft 384 kts 259°
2026-05-04 16:22 40.34010 7.34065 35009 ft 384 kts 259°
2026-05-04 16:23 40.31275 7.13348 35000 ft 385 kts 258°
2026-05-04 16:25 40.28501 6.92636 34999 ft 385 kts 258°
2026-05-04 16:26 40.25220 6.68494 34995 ft 385 kts 258°
2026-05-04 16:28 40.22850 6.51299 34983 ft 385 kts 258°
2026-05-04 16:29 40.19482 6.27177 34974 ft 386 kts 257°
2026-05-04 16:31 40.17038 6.09916 34966 ft 387 kts 257°
2026-05-04 16:32 40.14058 5.89159 34969 ft 388 kts 257°
2026-05-04 16:33 40.12082 5.75283 34968 ft 389 kts 257°
2026-05-04 16:34 40.10624 5.64905 34967 ft 389 kts 257°
2026-05-04 16:35 40.09159 5.54603 34003 ft 379 kts 256°
2026-05-04 16:35 40.07720 5.44568 32480 ft 371 kts 256°
2026-05-04 16:36 40.07243 5.41268 32052 ft 369 kts 256°
2026-05-04 16:36 40.06295 5.34728 31075 ft 364 kts 256°
2026-05-04 16:37 40.05359 5.28273 30151 ft 359 kts 256°
2026-05-04 16:37 40.04895 5.25074 29639 ft 357 kts 256°
2026-05-04 16:37 40.03971 5.18747 28646 ft 352 kts 256°
2026-05-04 16:38 40.03056 5.12504 27722 ft 348 kts 256°
2026-05-04 16:39 40.01709 5.03336 26371 ft 341 kts 257°
2026-05-04 16:39 40.00813 4.97257 25470 ft 337 kts 257°
2026-05-04 16:40 39.99935 4.91332 24616 ft 333 kts 257°
2026-05-04 16:40 39.99052 4.85445 23816 ft 328 kts 257°
2026-05-04 16:41 39.98176 4.79635 22910 ft 324 kts 257°
2026-05-04 16:41 39.96657 4.71123 21560 ft 318 kts 253°
2026-05-04 16:42 39.94903 4.62841 20307 ft 313 kts 254°
2026-05-04 16:43 39.93766 4.57379 19510 ft 311 kts 254°
2026-05-04 16:43 39.92657 4.51997 18751 ft 308 kts 255°
2026-05-04 16:43 39.92103 4.49304 18379 ft 307 kts 255°
2026-05-04 16:44 39.89900 4.38663 16927 ft 302 kts 255°
2026-05-04 16:45 39.88802 4.33388 16421 ft 301 kts 255°
2026-05-04 16:46 39.87171 4.25542 15666 ft 297 kts 255°
2026-05-04 16:46 39.86089 4.20369 15184 ft 295 kts 255°
2026-05-04 16:47 39.85029 4.15267 14697 ft 293 kts 255°
2026-05-04 16:47 39.83966 4.10172 14222 ft 291 kts 255°
2026-05-04 16:48 39.82380 4.02600 13480 ft 287 kts 255°
2026-05-04 16:48 39.81856 4.00099 13219 ft 286 kts 255°
2026-05-04 16:49 39.80812 3.95129 12694 ft 284 kts 254°
2026-05-04 16:49 39.79770 3.90202 12178 ft 281 kts 254°
2026-05-04 16:50 39.78734 3.85320 11673 ft 278 kts 254°
2026-05-04 16:50 39.77715 3.80519 11169 ft 274 kts 253°
2026-05-04 16:51 39.76703 3.75760 10678 ft 272 kts 253°
2026-05-04 16:51 39.76205 3.73421 10436 ft 271 kts 253°
2026-05-04 16:51 39.75197 3.68684 9958 ft 270 kts 253°
2026-05-04 16:52 39.74197 3.64007 9455 ft 268 kts 253°
2026-05-04 16:52 39.73706 3.61709 9198 ft 267 kts 253°
2026-05-04 16:53 39.72714 3.57069 8679 ft 266 kts 253°
2026-05-04 16:53 39.71250 3.50296 7922 ft 250 kts 253°
2026-05-04 16:54 39.70786 3.48148 7682 ft 244 kts 253°
2026-05-04 16:55 39.69386 3.39681 6707 ft 239 kts 260°
2026-05-04 16:55 39.69019 3.36104 6308 ft 238 kts 260°
2026-05-04 16:56 39.68578 3.31852 5804 ft 236 kts 261°
2026-05-04 16:56 39.67920 3.25546 5064 ft 235 kts 260°
2026-05-04 16:57 39.67700 3.23443 4810 ft 235 kts 260°
2026-05-04 16:57 39.67268 3.19321 4310 ft 225 kts 260°
2026-05-04 16:58 39.66650 3.13444 3566 ft 215 kts 261°
2026-05-04 16:58 39.66448 3.11522 3321 ft 215 kts 261°
2026-05-04 16:59 39.66065 3.07885 2857 ft 215 kts 261°
2026-05-04 17:00 39.65285 3.00541 2496 ft 196 kts 261°
2026-05-04 17:00 39.64563 2.95352 2496 ft 193 kts 242°
2026-05-04 17:01 39.63172 2.92369 2502 ft 193 kts 238°
2026-05-04 17:01 39.61769 2.89387 2304 ft 193 kts 237°
2026-05-04 17:02 39.60458 2.86599 1869 ft 163 kts 236°
2026-05-04 17:02 39.59363 2.84274 1447 ft 146 kts 236°
2026-05-04 17:03 39.58839 2.83162 1281 ft 143 kts 236°
2026-05-04 17:03 39.58328 2.82077 1096 ft 141 kts 236°
2026-05-04 17:03 39.57305 2.79907 740 ft 140 kts 236°
2026-05-04 17:04 39.56296 2.77776 387 ft 135 kts 237°
2026-05-04 17:04 39.55364 2.75791 44 ft 119 kts 237°
2026-05-04 17:05 39.54828 2.74627 38 ft 26 kts 256°
2026-05-04 17:05 39.54818 2.74545 38 ft 7 kts 261°
2026-05-04 17:06 39.54805 2.74385 38 ft 14 kts 268°
2026-05-04 17:06 39.54801 2.74226 38 ft 19 kts 269°
2026-05-04 17:07 39.54945 2.74002 38 ft 10 kts 256°
2026-05-04 17:07 39.54939 2.73945 38 ft 10 kts 297°
2026-05-04 17:07 39.55041 2.73847 37 ft 19 kts 328°
2026-05-04 17:07 39.55151 2.73762 38 ft 11 kts 329°
2026-05-04 17:08 39.55176 2.73691 38 ft 9 kts 249°
2026-05-04 17:08 39.55103 2.73534 38 ft 7 kts 238°
2026-05-04 17:08 39.55058 2.73531 38 ft 7 kts 164°
2026-05-04 17:09 39.55042 2.73536 38 ft 0 kts 167°